| time (UTC) | temp F | wind direction | speed MPH | gust MPH | rain 1hr in | rain 24hr in | rain mn in | humidity % | barometer mb |
| 20260504150853 | 59 | 173 | 5.0 | 8.0 | 0.00 | 0.00 | 0.00 | 65 | 1014.3 |
| 20260504150353 | 58 | 169 | 2.0 | 7.0 | 0.00 | 0.00 | 0.00 | 66 | 1014.4 |
| 20260504140854 | 57 | 209 | 2.0 | 6.0 | 0.00 | 0.00 | 0.00 | 68 | 1014.7 |
| 20260504140353 | 57 | 242 | 1.0 | 2.0 | 0.00 | 0.00 | 0.00 | 68 | 1014.8 |
| 20260504130353 | 56 | 215 | 1.0 | 3.0 | 0.00 | 0.00 | 0.00 | 71 | 1015.1 |
| 20260504110354 | 53 | 168 | 3.0 | 6.0 | 0.00 | 0.03 | 0.00 | 76 | 1015.3 |
| 20260504081853 | 48 | 94 | 2.0 | 5.0 | 0.00 | 0.06 | 0.00 | 87 | 1015.2 |
| 20260504081353 | 48 | 92 | 1.0 | 3.0 | 0.00 | 0.07 | 0.00 | 87 | 1015.2 |
| 20260504080853 | 48 | 92 | 2.0 | 6.0 | 0.00 | 0.07 | 0.00 | 88 | 1015.2 |
| 20260504080353 | 47 | 85 | 2.0 | 6.0 | 0.00 | 0.07 | 0.00 | 88 | 1015.1 |
| 20260504070353 | 46 | 102 | 0.0 | 2.0 | 0.00 | 0.09 | 0.00 | 92 | 1014.7 |
| 20260504050353 | 45 | 15 | 2.0 | 5.0 | 0.00 | 0.09 | 0.00 | 93 | 1013.9 |
| 20260504044853 | 45 | 18 | 1.0 | 3.0 | 0.00 | 0.09 | 0.00 | 93 | 1013.9 |
| 20260504044352 | 45 | 15 | 2.0 | 5.0 | 0.00 | 0.09 | 0.00 | 93 | 1013.8 |
| 20260504043853 | 45 | 353 | 1.0 | 3.0 | 0.00 | 0.09 | 0.00 | 93 | 1013.8 |
| 20260504043352 | 45 | 25 | 1.0 | 3.0 | 0.00 | 0.09 | 0.00 | 92 | 1013.8 |
| 20260504042853 | 45 | 0 | 1.0 | 3.0 | 0.00 | 0.09 | 0.00 | 92 | 1013.8 |
| 20260504042352 | 45 | 340 | 0.0 | 3.0 | 0.00 | 0.09 | 0.00 | 92 | 1013.7 |
| 20260504041853 | 45 | 355 | 1.0 | 3.0 | 0.00 | 0.09 | 0.00 | 92 | 1013.7 |
| 20260504041353 | 45 | 32 | 1.0 | 3.0 | 0.00 | 0.09 | 0.00 | 92 | 1013.7 |
| 20260504040853 | 45 | 24 | 1.0 | 3.0 | 0.00 | 0.09 | 0.00 | 93 | 1013.7 |
| 20260504040353 | 45 | 18 | 1.0 | 3.0 | 0.00 | 0.09 | 0.00 | 93 | 1013.8 |
| 20260504035853 | 45 | 32 | 2.0 | 3.0 | 0.00 | 0.09 | 0.00 | 93 | 1013.7 |
| 20260504035352 | 45 | 36 | 1.0 | 3.0 | 0.00 | 0.09 | 0.00 | 92 | 1013.6 |
| 20260504034352 | 45 | 30 | 2.0 | 5.0 | 0.00 | 0.09 | 0.00 | 92 | 1013.6 |
| 20260504033853 | 45 | 327 | 1.0 | 3.0 | 0.00 | 0.09 | 0.00 | 93 | 1013.5 |
| 20260504033353 | 45 | 59 | 1.0 | 3.0 | 0.00 | 0.09 | 0.00 | 92 | 1013.5 |
| 20260504032853 | 45 | 62 | 1.0 | 2.0 | 0.00 | 0.09 | 0.00 | 92 | 1013.5 |
| 20260504032352 | 45 | 62 | 1.0 | 3.0 | 0.00 | 0.10 | 0.00 | 92 | 1013.5 |
| 20260504031853 | 45 | 97 | 1.0 | 3.0 | 0.00 | 0.10 | 0.00 | 92 | 1013.4 |
| 20260504031353 | 45 | 88 | 1.0 | 2.0 | 0.00 | 0.11 | 0.00 | 92 | 1013.5 |
| 20260504030853 | 45 | 33 | 0.0 | 2.0 | 0.00 | 0.11 | 0.00 | 92 | 1013.5 |
| 20260504030352 | 45 | 33 | 1.0 | 2.0 | 0.00 | 0.11 | 0.00 | 92 | 1013.5 |
| 20260504025853 | 45 | 33 | 1.0 | 5.0 | 0.00 | 0.11 | 0.00 | 92 | 1013.5 |
| 20260504025352 | 45 | 117 | 1.0 | 3.0 | 0.00 | 0.11 | 0.00 | 92 | 1013.4 |
| 20260504024852 | 45 | 117 | 1.0 | 2.0 | 0.00 | 0.11 | 0.00 | 92 | 1013.4 |
| 20260504024353 | 45 | 117 | 0.0 | 2.0 | 0.00 | 0.11 | 0.00 | 92 | 1013.4 |
| 20260504023853 | 45 | 117 | 2.0 | 5.0 | 0.00 | 0.11 | 0.00 | 92 | 1013.4 |
| 20260504023353 | 45 | 0 | 1.0 | 3.0 | 0.00 | 0.12 | 0.00 | 92 | 1013.4 |
| 20260504022852 | 45 | 41 | 0.0 | 5.0 | 0.00 | 0.12 | 0.00 | 92 | 1013.4 |
| 20260504022352 | 45 | 60 | 2.0 | 5.0 | 0.00 | 0.13 | 0.00 | 92 | 1013.3 |
| 20260504021853 | 45 | 62 | 1.0 | 3.0 | 0.00 | 0.13 | 0.00 | 92 | 1013.3 |
| 20260504020853 | 45 | 70 | 1.0 | 3.0 | 0.00 | 0.13 | 0.00 | 92 | 1013.3 |
| 20260504020353 | 45 | 348 | 2.0 | 3.0 | 0.00 | 0.13 | 0.00 | 92 | 1013.3 |
| 20260504015853 | 45 | 65 | 0.0 | 2.0 | 0.00 | 0.14 | 0.00 | 92 | 1013.4 |
| 20260504015352 | 45 | 9 | 1.0 | 3.0 | 0.00 | 0.14 | 0.00 | 92 | 1013.3 |
| 20260504014852 | 45 | 40 | 1.0 | 5.0 | 0.00 | 0.14 | 0.00 | 92 | 1013.3 |
| 20260504014352 | 45 | 15 | 2.0 | 6.0 | 0.00 | 0.14 | 0.00 | 92 | 1013.3 |
| 20260504013352 | 46 | 286 | 1.0 | 3.0 | 0.00 | 0.15 | 0.00 | 92 | 1013.3 |
| 20260504012353 | 46 | 43 | 1.0 | 3.0 | 0.00 | 0.15 | 0.00 | 92 | 1013.2 |
| 20260504011852 | 46 | 72 | 1.0 | 5.0 | 0.00 | 0.16 | 0.00 | 92 | 1013.1 |
| 20260504010852 | 46 | 8 | 2.0 | 5.0 | 0.00 | 0.17 | 0.00 | 92 | 1013.1 |
| 20260504010352 | 46 | 5 | 1.0 | 3.0 | 0.00 | 0.17 | 0.00 | 92 | 1013.1 |
| 20260504005853 | 46 | 3 | 1.0 | 2.0 | 0.00 | 0.18 | 0.00 | 92 | 1013.1 |
| 20260504005352 | 46 | 98 | 1.0 | 3.0 | 0.00 | 0.18 | 0.00 | 92 | 1013.0 |
| 20260504004852 | 46 | 9 | 1.0 | 3.0 | 0.00 | 0.19 | 0.00 | 92 | 1013.0 |
| 20260504003853 | 46 | 69 | 2.0 | 3.0 | 0.00 | 0.20 | 0.00 | 92 | 1013.0 |
| 20260504003352 | 46 | 142 | 1.0 | 3.0 | 0.00 | 0.21 | 0.00 | 93 | 1013.0 |
| 20260504002853 | 46 | 75 | 1.0 | 3.0 | 0.00 | 0.21 | 0.00 | 93 | 1013.0 |
| 20260504002352 | 46 | 72 | 0.0 | 2.0 | 0.00 | 0.22 | 0.00 | 93 | 1012.9 |
| 20260504001853 | 46 | 94 | 1.0 | 3.0 | 0.00 | 0.23 | 0.00 | 93 | 1012.9 |
| 20260504001353 | 46 | 121 | 2.0 | 6.0 | 0.00 | 0.24 | 0.00 | 93 | 1012.9 |
| 20260504000853 | 46 | 58 | 1.0 | 15.0 | 0.00 | 0.24 | 0.00 | 93 | 1012.9 |
| 20260504000354 | 46 | 33 | 1.0 | 3.0 | 0.00 | 0.24 | 0.00 | 93 | 1012.9 |
| 20260503235853 | 46 | 0 | 1.0 | 5.0 | 0.00 | 0.25 | 0.00 | 93 | 1013.0 |
| 20260503235352 | 46 | 31 | 1.0 | 5.0 | 0.00 | 0.26 | 0.00 | 93 | 1013.0 |
| 20260503234852 | 46 | 28 | 2.0 | 5.0 | 0.00 | 0.27 | 0.00 | 93 | 1013.0 |
| 20260503233852 | 46 | 9 | 1.0 | 3.0 | 0.00 | 0.28 | 0.00 | 94 | 1012.9 |
| 20260503233352 | 46 | 16 | 1.0 | 3.0 | 0.00 | 0.28 | 0.00 | 94 | 1013.0 |
| 20260503232853 | 46 | 351 | 1.0 | 3.0 | 0.00 | 0.28 | 0.00 | 93 | 1013.0 |
| 20260503232353 | 46 | 40 | 1.0 | 5.0 | 0.00 | 0.29 | 0.00 | 93 | 1012.9 |
| 20260503231853 | 46 | 355 | 1.0 | 3.0 | 0.00 | 0.30 | 0.00 | 93 | 1012.9 |
| 20260503231352 | 46 | 49 | 0.0 | 3.0 | 0.00 | 0.31 | 0.00 | 93 | 1012.9 |
| 20260503230937 | 46 | 54 | 1.0 | 8.0 | 0.00 | 0.31 | 0.00 | 93 | 1012.9 |
| 20260503230353 | 46 | 42 | 1.0 | 2.0 | 0.00 | 0.32 | 0.00 | 93 | 1012.9 |
| 20260503225852 | 46 | 11 | 2.0 | 3.0 | 0.00 | 0.33 | 0.33 | 93 | 1012.8 |
| 20260503225352 | 46 | 355 | 0.0 | 2.0 | 0.00 | 0.34 | 0.33 | 93 | 1012.8 |
| 20260503224853 | 46 | 355 | 0.0 | 3.0 | 0.00 | 0.35 | 0.33 | 93 | 1012.8 |
| 20260503223853 | 46 | 260 | 1.0 | 2.0 | 0.00 | 0.35 | 0.33 | 93 | 1012.7 |
| 20260503223352 | 46 | 144 | 1.0 | 2.0 | 0.00 | 0.35 | 0.33 | 93 | 1012.7 |
| 20260503222852 | 47 | 7 | 0.0 | 2.0 | 0.00 | 0.36 | 0.33 | 93 | 1012.7 |
| 20260503221853 | 47 | 15 | 1.0 | 6.0 | 0.00 | 0.37 | 0.33 | 93 | 1012.5 |
| 20260503221352 | 47 | 18 | 2.0 | 5.0 | 0.00 | 0.37 | 0.33 | 93 | 1012.5 |
| 20260503220353 | 47 | 352 | 1.0 | 3.0 | 0.00 | 0.39 | 0.33 | 92 | 1012.5 |
| 20260503215852 | 47 | 13 | 1.0 | 2.0 | 0.00 | 0.39 | 0.33 | 92 | 1012.4 |
| 20260503215352 | 47 | 25 | 1.0 | 3.0 | 0.00 | 0.39 | 0.33 | 92 | 1012.3 |
| 20260503214853 | 47 | 80 | 1.0 | 3.0 | 0.00 | 0.40 | 0.33 | 92 | 1012.4 |
| 20260503214352 | 47 | 15 | 2.0 | 3.0 | 0.00 | 0.41 | 0.33 | 92 | 1012.4 |
| 20260503213853 | 47 | 75 | 1.0 | 3.0 | 0.00 | 0.42 | 0.33 | 92 | 1012.3 |
| 20260503212352 | 47 | 125 | 1.0 | 2.0 | 0.00 | 0.44 | 0.33 | 92 | 1012.3 |
| 20260503211853 | 47 | 44 | 2.0 | 5.0 | 0.00 | 0.44 | 0.33 | 92 | 1012.4 |
| 20260503210854 | 47 | 96 | 1.0 | 3.0 | 0.00 | 0.45 | 0.33 | 92 | 1012.3 |
| 20260503210353 | 47 | 96 | 1.0 | 3.0 | 0.00 | 0.46 | 0.33 | 92 | 1012.2 |
| 20260503205852 | 47 | 105 | 0.0 | 2.0 | 0.00 | 0.46 | 0.33 | 92 | 1012.2 |
| 20260503204853 | 47 | 236 | 1.0 | 3.0 | 0.00 | 0.46 | 0.33 | 92 | 1012.1 |
| 20260503204352 | 47 | 330 | 2.0 | 3.0 | 0.00 | 0.46 | 0.33 | 92 | 1012.1 |
| 20260503203853 | 47 | 195 | 1.0 | 3.0 | 0.00 | 0.46 | 0.33 | 92 | 1012.0 |
| 20260503203353 | 47 | 198 | 2.0 | 5.0 | 0.00 | 0.46 | 0.33 | 92 | 1011.9 |
| 20260503201852 | 47 | 142 | 4.0 | 8.0 | 0.00 | 0.46 | 0.33 | 92 | 1011.7 |
| 20260503201352 | 47 | 319 | 1.0 | 3.0 | 0.00 | 0.46 | 0.33 | 92 | 1011.7 |
| 20260503200352 | 47 | 246 | 1.0 | 3.0 | 0.00 | 0.46 | 0.33 | 92 | 1011.6 |
| 20260503195853 | 47 | 227 | 2.0 | 3.0 | 0.00 | 0.46 | 0.33 | 92 | 1011.5 |
| 20260503195352 | 48 | 226 | 3.0 | 5.0 | 0.00 | 0.46 | 0.33 | 92 | 1011.3 |
| 20260503194852 | 48 | 345 | 1.0 | 5.0 | 0.00 | 0.46 | 0.33 | 92 | 1011.4 |
| 20260503194352 | 48 | 338 | 1.0 | 3.0 | 0.00 | 0.46 | 0.33 | 92 | 1011.3 |
| 20260503193852 | 48 | 255 | 2.0 | 5.0 | 0.00 | 0.46 | 0.33 | 92 | 1011.2 |
| 20260503193352 | 48 | 17 | 1.0 | 3.0 | 0.00 | 0.46 | 0.33 | 92 | 1011.2 |
| 20260503191853 | 48 | 164 | 2.0 | 8.0 | 0.00 | 0.46 | 0.33 | 92 | 1010.9 |
| 20260503191354 | 48 | 244 | 2.0 | 3.0 | 0.00 | 0.46 | 0.33 | 91 | 1010.9 |
| 20260503190853 | 48 | 9 | 0.0 | 2.0 | 0.00 | 0.46 | 0.33 | 91 | 1010.9 |
| 20260503190353 | 48 | 9 | 1.0 | 3.0 | 0.00 | 0.46 | 0.33 | 92 | 1010.8 |
| 20260503185853 | 48 | 28 | 1.0 | 5.0 | 0.00 | 0.46 | 0.33 | 92 | 1010.7 |
| 20260503185352 | 48 | 243 | 1.0 | 5.0 | 0.00 | 0.46 | 0.33 | 92 | 1010.7 |
| 20260503183853 | 48 | 86 | 1.0 | 2.0 | 0.00 | 0.46 | 0.33 | 92 | 1010.6 |
| 20260503183352 | 48 | 12 | 3.0 | 8.0 | 0.00 | 0.46 | 0.33 | 92 | 1010.5 |
| 20260503182853 | 48 | 75 | 1.0 | 6.0 | 0.00 | 0.46 | 0.33 | 92 | 1010.4 |
| 20260503182352 | 48 | 21 | 0.0 | 3.0 | 0.00 | 0.46 | 0.33 | 92 | 1010.4 |
| 20260503181852 | 48 | 41 | 1.0 | 6.0 | 0.00 | 0.46 | 0.33 | 92 | 1010.4 |
| 20260503181352 | 48 | 357 | 2.0 | 6.0 | 0.00 | 0.46 | 0.33 | 92 | 1010.4 |
| 20260503180852 | 49 | 28 | 2.0 | 6.0 | 0.00 | 0.46 | 0.33 | 92 | 1010.4 |
| 20260503180352 | 49 | 10 | 2.0 | 5.0 | 0.00 | 0.46 | 0.33 | 92 | 1010.3 |
| 20260503175852 | 49 | 49 | 2.0 | 5.0 | 0.00 | 0.46 | 0.33 | 92 | 1010.3 |
| 20260503175352 | 49 | 55 | 0.0 | 2.0 | 0.00 | 0.46 | 0.33 | 92 | 1010.2 |
| 20260503174852 | 49 | 47 | 1.0 | 6.0 | 0.00 | 0.46 | 0.33 | 92 | 1010.1 |
| 20260503173852 | 49 | 356 | 1.0 | 5.0 | 0.00 | 0.46 | 0.33 | 92 | 1010.1 |
| 20260503173352 | 49 | 306 | 1.0 | 3.0 | 0.00 | 0.46 | 0.33 | 92 | 1010.1 |
| 20260503172352 | 49 | 103 | 2.0 | 8.0 | 0.00 | 0.46 | 0.33 | 92 | 1010.0 |
| 20260503171352 | 49 | 8 | 2.0 | 6.0 | 0.00 | 0.46 | 0.33 | 92 | 1009.9 |
| 20260503170853 | 49 | 350 | 1.0 | 5.0 | 0.00 | 0.46 | 0.33 | 92 | 1010.0 |
| 20260503170352 | 49 | 354 | 3.0 | 7.0 | 0.00 | 0.46 | 0.33 | 92 | 1009.9 |